Location: Kerentrech
(47.7567°N, 3.3595°W)
Time: 20:01:43
(UTC+00:00)

STARLINK-1095 - Pass Details

Date: 17 February 2020
Orbit: 379 x 380 km, 53.0° (Epoch: 05 April)

Event Time Altitude Azimuth Distance (km) Brightness Sun altitude
Exits shadow 05:18:50 13° 171° (S) 1,255 5.5 -20.5°
Drops below altitude 10° 05:22:36 10° 92° (E) 1,410 6.9 -19.9°
Enters shadow 06:17:49 -71° 242° (WSW) 12,460 10.4 -10.6°
Maximum altitude 06:55:57 80° 332° (NNW) 396 2.9 -4.3°
